Location: McCall
(45.0000°N, 116.0000°W)
Time: 02:47:54
(UTC-07:00)

Saudisat 1A - Visible Passes

Search period start: 09 February 2016 00:00
Search period end: 19 February 2016 00:00
Orbit: 565 x 630 km, 64.6° (Epoch: 08 February)

Date Brightness Start Highest point End Pass type
(mag) Time Alt. Az. Time Alt. Az. Time Alt. Az.
09 Feb 10.5 05:05:27 15° NNE 05:06:48 16° NNE 05:09:42 10° ENE visible
09 Feb 8.2 06:42:25 10° NW 06:47:01 79° NE 06:51:32 10° SE visible
10 Feb 10.1 05:15:56 19° N 05:17:35 23° NE 05:21:13 10° E visible
10 Feb 8.1 06:52:54 10° NW 06:57:25 61° WSW 07:01:52 10° SSE visible
11 Feb 9.5 05:26:30 25° N 05:28:16 34° NE 05:32:24 10° ESE visible
11 Feb 8.8 07:03:36 10° NW 07:07:43 34° WSW 07:11:48 10° S visible
12 Feb 11.3 04:00:28 10° ENE 04:00:28 10° ENE 04:00:31 10° ENE visible
12 Feb 8.7 05:37:11 35° N 05:38:51 54° NE 05:43:17 10° SE visible
12 Feb 9.5 07:14:37 10° WNW 07:17:56 20° WSW 07:21:14 10° SSW visible
13 Feb 11.0 04:11:17 14° ENE 04:11:17 14° ENE 04:12:20 10° ENE visible
13 Feb 8.0 05:48:01 47° NW 05:49:19 89° WSW 05:53:50 10° SE visible
14 Feb 10.7 04:22:16 17° E 04:22:16 17° E 04:23:46 10° E visible
14 Feb 8.2 05:59:00 47° W 05:59:42 52° WSW 06:04:04 10° SSE visible
14 Feb 10.3 20:02:50 10° SSE 20:03:13 12° SSE 20:03:13 12° SSE visible
15 Feb 10.5 04:33:24 19° ESE 04:33:24 19° ESE 04:34:51 10° ESE visible
15 Feb 8.9 06:10:09 30° WSW 06:10:09 30° WSW 06:13:52 10° S visible
15 Feb 9.3 20:12:29 10° S 20:14:50 28° S 20:14:50 28° S visible
16 Feb 10.5 04:44:43 16° SE 04:44:43 16° SE 04:45:37 10° SE visible
16 Feb 9.8 06:21:28 15° SW 06:21:28 15° SW 06:23:05 10° SSW visible
16 Feb 8.2 20:22:35 10° SSW 20:26:21 62° S 20:26:21 62° S visible
17 Feb 9.6 18:55:39 10° SSE 18:58:29 17° ESE 19:00:58 11° ENE visible
17 Feb 8.4 20:33:02 10° SW 20:37:26 63° NW 20:37:44 61° NNW visible
18 Feb 9.0 19:04:49 10° S 19:08:38 29° ESE 19:12:13 12° ENE visible
18 Feb 9.3 20:43:48 10° WSW 20:47:59 38° NW 20:48:57 34° NNW visible
